| time (UTC) | temp C | wind direction | speed KPH | gust KPH | rain 1hr cm | rain 24hr cm | rain mn cm | humidity % | barometer mb |
| 20260505084015 | 12 | 181 | 27.4 | 48.3 | 0.00 | 0.23 | 0.00 | 53 | |
| 20260505083015 | 12 | 181 | 27.4 | 51.5 | 0.00 | 0.23 | 0.00 | 53 | |
| 20260505082015 | 12 | 181 | 24.1 | 48.3 | 0.00 | 0.23 | 0.00 | 54 | |
| 20260505081016 | 11 | 181 | 25.7 | 43.5 | 0.00 | 0.23 | 0.00 | 54 | |
| 20260505080015 | 11 | 181 | 27.4 | 49.9 | 0.00 | 0.23 | 0.00 | 54 | |
| 20260505075036 | 12 | 181 | 29.0 | 46.7 | 0.00 | 0.23 | 0.00 | 54 | |
| 20260505074015 | 12 | 181 | 29.0 | 54.7 | 0.00 | 0.23 | 0.00 | 54 | |
| 20260505073015 | 12 | 181 | 30.6 | 51.5 | 0.00 | 0.23 | 0.00 | 54 | |
| 20260505072015 | 12 | 181 | 20.9 | 37.0 | 0.00 | 0.23 | 0.00 | 54 | |
| 20260505071057 | 13 | 181 | 29.0 | 51.5 | 0.00 | 0.23 | 0.00 | 52 | |
| 20260505070016 | 14 | 181 | 22.5 | 38.6 | 0.00 | 0.23 | 0.00 | 51 | |
| 20260505065016 | 15 | 181 | 22.5 | 38.6 | 0.00 | 0.23 | 0.00 | 50 | |
| 20260505064016 | 15 | 181 | 22.5 | 37.0 | 0.00 | 0.23 | 0.00 | 51 | |
| 20260505063015 | 15 | 181 | 17.7 | 38.6 | 0.00 | 0.23 | 0.00 | 51 | |
| 20260505062016 | 15 | 181 | 19.3 | 32.2 | 0.00 | 0.23 | 0.00 | 51 | |
| 20260505061035 | 15 | 181 | 20.9 | 40.2 | 0.00 | 0.23 | 0.00 | 51 | |
| 20260505060015 | 15 | 181 | 16.1 | 32.2 | 0.00 | 0.23 | 0.00 | 54 | |
| 20260505055015 | 15 | 181 | 17.7 | 33.8 | 0.00 | 0.23 | 0.00 | 57 | |
| 20260505054015 | 16 | 181 | 17.7 | 40.2 | 0.00 | 0.23 | 0.00 | 58 | |
| 20260505053015 | 16 | 181 | 20.9 | 32.2 | 0.00 | 0.23 | 0.00 | 57 | |
| 20260505052035 | 16 | 181 | 16.1 | 29.0 | 0.00 | 0.23 | 0.00 | 58 | |
| 20260505051036 | 17 | 181 | 19.3 | 30.6 | 0.00 | 0.23 | 0.00 | 57 | |
| 20260505041016 | 18 | 181 | 12.9 | 19.3 | 0.00 | 0.23 | 0.00 | 56 | |
| 20260505040015 | 18 | 181 | 9.7 | 14.5 | 0.00 | 0.23 | 0.00 | 53 | |
| 20260505035056 | 19 | 181 | 9.7 | 14.5 | 0.00 | 0.23 | 0.00 | 51 | |
| 20260505034015 | 19 | 181 | 9.7 | 14.5 | 0.00 | 0.23 | 0.00 | 51 | |
| 20260505033015 | 20 | 181 | 9.7 | 17.7 | 0.00 | 0.23 | 0.00 | 48 | |
| 20260505032015 | 20 | 181 | 9.7 | 14.5 | 0.00 | 0.23 | 0.00 | 49 | |
| 20260505031015 | 20 | 181 | 9.7 | 16.1 | 0.00 | 0.23 | 0.00 | 49 | |
| 20260505030016 | 20 | 181 | 9.7 | 14.5 | 0.00 | 0.23 | 0.00 | 48 | |
| 20260505025015 | 19 | 181 | 8.0 | 14.5 | 0.00 | 0.23 | 0.00 | 55 | |
| 20260505024018 | 20 | 181 | 8.0 | 12.9 | 0.00 | 0.23 | 0.00 | 54 | |
| 20260505023015 | 18 | 181 | 9.7 | 14.5 | 0.00 | 0.23 | 0.00 | 59 | |
| 20260505022015 | 18 | 181 | 8.0 | 14.5 | 0.00 | 0.23 | 0.00 | 62 | |
| 20260505021015 | 19 | 181 | 4.8 | 9.7 | 0.00 | 0.23 | 0.00 | 62 | |
| 20260505020015 | 20 | 181 | 4.8 | 9.7 | 0.00 | 0.23 | 0.00 | 60 | |
| 20260505015016 | 20 | 181 | 6.4 | 16.1 | 0.00 | 0.23 | 0.00 | 58 | |
| 20260505014035 | 20 | 181 | 8.0 | 12.9 | 0.00 | 0.23 | 0.00 | 59 | |
| 20260505013015 | 20 | 181 | 9.7 | 14.5 | 0.00 | 0.23 | 0.00 | 57 | |
| 20260505012015 | 20 | 181 | 6.4 | 12.9 | 0.00 | 0.23 | 0.00 | 54 | |
| 20260505011016 | 21 | 181 | 8.0 | 12.9 | 0.00 | 0.23 | 0.00 | 52 | |
| 20260505010015 | 21 | 181 | 8.0 | 12.9 | 0.00 | 0.23 | 0.00 | 52 | |
| 20260505005015 | 21 | 181 | 4.8 | 14.5 | 0.00 | 0.23 | 0.00 | 52 | |
| 20260505004017 | 22 | 181 | 4.8 | 9.7 | 0.00 | 0.23 | 0.00 | 51 | |
| 20260505003016 | 23 | 181 | 6.4 | 11.3 | 0.00 | 0.23 | 0.00 | 43 | |
| 20260505002015 | 23 | 181 | 9.7 | 16.1 | 0.00 | 0.23 | 0.00 | 43 | |
| 20260505001036 | 23 | 181 | 6.4 | 14.5 | 0.00 | 0.23 | 0.00 | 36 | |
| 20260505000015 | 23 | 181 | 8.0 | 16.1 | 0.03 | 0.23 | 0.00 | 39 | |
| 20260504235016 | 24 | 181 | 8.0 | 16.1 | 0.03 | 0.23 | 0.23 | 36 | |
| 20260504234035 | 25 | 181 | 9.7 | 17.7 | 0.08 | 0.23 | 0.23 | 39 | |
| 20260504233016 | 25 | 181 | 8.0 | 17.7 | 0.23 | 0.23 | 0.23 | 33 | |
| 20260504232036 | 24 | 181 | 14.5 | 38.6 | 0.23 | 0.23 | 0.23 | 34 | |
| 20260504231036 | 24 | 181 | 12.9 | 24.1 | 0.23 | 0.23 | 0.23 | 39 | |
| 20260504230015 | 25 | 181 | 12.9 | 20.9 | 0.20 | 0.20 | 0.20 | 34 | |
| 20260504225015 | 25 | 181 | 14.5 | 25.7 | 0.20 | 0.20 | 0.20 | 31 | |
| 20260504224015 | 26 | 181 | 17.7 | 49.9 | 0.15 | 0.15 | 0.15 | 30 | |
| 20260504223015 | 28 | 181 | 4.8 | 9.7 | 0.00 | 0.00 | 0.00 | 22 | |
| 20260504222015 | 28 | 181 | 8.0 | 19.3 | 0.00 | 0.00 | 0.00 | 20 | |
| 20260504221016 | 28 | 181 | 9.7 | 14.5 | 0.00 | 0.00 | 0.00 | 18 | |
| 20260504220015 | 28 | 181 | 6.4 | 17.7 | 0.00 | 0.00 | 0.00 | 17 | |
| 20260504215016 | 29 | 181 | 11.3 | 17.7 | 0.00 | 0.00 | 0.00 | 16 | |
| 20260504214015 | 29 | 181 | 8.0 | 17.7 | 0.00 | 0.00 | 0.00 | 15 | |
| 20260504213056 | 29 | 181 | 9.7 | 19.3 | 0.00 | 0.00 | 0.00 | 15 | |
| 20260504212015 | 29 | 181 | 12.9 | 20.9 | 0.00 | 0.00 | 0.00 | 14 | |
| 20260504211016 | 30 | 181 | 14.5 | 37.0 | 0.00 | 0.00 | 0.00 | 13 | |
| 20260504210035 | 29 | 181 | 4.8 | 12.9 | 0.00 | 0.00 | 0.00 | 13 | |
| 20260504205015 | 29 | 181 | 8.0 | 14.5 | 0.00 | 0.00 | 0.00 | 14 | |
| 20260504204035 | 30 | 181 | 9.7 | 19.3 | 0.00 | 0.00 | 0.00 | 13 | |
| 20260504203015 | 29 | 181 | 9.7 | 19.3 | 0.00 | 0.00 | 0.00 | 14 | |
| 20260504202017 | 29 | 181 | 11.3 | 20.9 | 0.00 | 0.00 | 0.00 | 13 | |
| 20260504201015 | 29 | 181 | 9.7 | 17.7 | 0.00 | 0.00 | 0.00 | 14 | |
| 20260504200057 | 28 | 181 | 14.5 | 22.5 | 0.00 | 0.00 | 0.00 | 15 | |
| 20260504195015 | 29 | 181 | 9.7 | 17.7 | 0.00 | 0.00 | 0.00 | 15 | |
| 20260504194015 | 29 | 181 | 12.9 | 27.4 | 0.00 | 0.00 | 0.00 | 15 | |
| 20260504193036 | 28 | 181 | 11.3 | 19.3 | 0.00 | 0.00 | 0.00 | 16 | |
| 20260504192015 | 29 | 181 | 9.7 | 20.9 | 0.00 | 0.00 | 0.00 | 16 | |
| 20260504191015 | 28 | 181 | 9.7 | 19.3 | 0.00 | 0.00 | 0.00 | 17 | |
| 20260504190015 | 28 | 181 | 8.0 | 16.1 | 0.00 | 0.00 | 0.00 | 18 | |
| 20260504185015 | 28 | 181 | 11.3 | 19.3 | 0.00 | 0.00 | 0.00 | 18 | |
| 20260504184015 | 28 | 181 | 9.7 | 19.3 | 0.00 | 0.00 | 0.00 | 18 | |
| 20260504183035 | 28 | 181 | 9.7 | 20.9 | 0.00 | 0.00 | 0.00 | 18 | |
| 20260504182015 | 28 | 181 | 8.0 | 17.7 | 0.00 | 0.00 | 0.00 | 17 | |
| 20260504181038 | 28 | 181 | 8.0 | 20.9 | 0.00 | 0.00 | 0.00 | 19 | |
| 20260504180055 | 28 | 181 | 6.4 | 17.7 | 0.00 | 0.00 | 0.00 | 19 | |
| 20260504175035 | 28 | 181 | 11.3 | 20.9 | 0.00 | 0.00 | 0.00 | 20 | |
| 20260504174015 | 28 | 181 | 11.3 | 20.9 | 0.00 | 0.00 | 0.00 | 20 | |
| 20260504173015 | 27 | 181 | 11.3 | 20.9 | 0.00 | 0.00 | 0.00 | 22 | |
| 20260504172036 | 28 | 181 | 12.9 | 20.9 | 0.00 | 0.00 | 0.00 | 23 | |
| 20260504171017 | 28 | 181 | 9.7 | 19.3 | 0.00 | 0.00 | 0.00 | 22 | |
| 20260504151015 | 21 | 181 | 4.8 | 9.7 | 0.00 | 0.00 | 0.00 | 38 | |
| 20260504141016 | 17 | 181 | 9.7 | 14.5 | 0.00 | 0.00 | 0.00 | 48 |